User: anonymous   Login
Location: Unspecified
(0.0000°N, 0.0000°E)
Time: 07:01:46
(UTC+00:00)
Language:

deb DMSP - Orbit

View from above orbital plane
View from above orbital plane
View from above satellite
View from above satellite

Ground track
Ground track

The orbit data is extracted from the following two-line orbital elements,

1 24756U 97012B   18170.07211019  .00012944  00000-0  65369-3 0  9993
2 24756  98.8227 341.4775 0003961 218.4120 264.3101 15.17261610121607
Epoch (UTC): 19 June 2018 01:43:50
Eccentricity: 0.0003961
inclination: 98.8227°
perigee height: 511 km
apogee height: 517 km
right ascension of ascending node: 341.4775°
argument of perigee: 218.4120°
revolutions per day: 15.17261610
mean anomaly at epoch: 264.3101°
orbit number at epoch: 12160

The dashed part of the orbit path shows where the satellite is in the earth's shadow,  

DLR